| time (UTC) | temp F | wind direction | speed knots | gust knots | rain 1hr in | rain 24hr in | rain mn in | humidity % | barometer mb |
| 20260902204602 | 64 | 260 | 6.1 | 8.7 | 0.00 | 0.00 | 0.00 | 75 | 1004.4 |
| 20260902204057 | 65 | 240 | 7.8 | 8.7 | 0.00 | 0.00 | 0.00 | 73 | 1004.6 |
| 20260902203553 | 66 | 173 | 6.1 | 7.8 | 0.00 | 0.00 | 0.00 | 73 | 1004.3 |
| 20260902203052 | 65 | 237 | 2.6 | 4.3 | 0.00 | 0.00 | 0.00 | 73 | 1004.3 |
| 20260902202548 | 65 | 211 | 7.0 | 7.8 | 0.00 | 0.00 | 0.00 | 74 | 1004.4 |
| 20260902202044 | 65 | 205 | 6.1 | 7.0 | 0.00 | 0.00 | 0.00 | 75 | 1004.2 |
| 20260902201539 | 64 | 200 | 0.9 | 1.7 | 0.00 | 0.00 | 0.00 | 76 | 1004.4 |
| 20260902201033 | 63 | 215 | 2.6 | 4.3 | 0.00 | 0.00 | 0.00 | 77 | 1004.6 |
| 20260902200528 | 62 | 178 | 7.0 | 7.0 | 0.00 | 0.00 | 0.00 | 79 | 1004.8 |
| 20260902200025 | 62 | 210 | 7.8 | 9.6 | 0.00 | 0.00 | 0.00 | 80 | 1004.9 |
| 20260902195520 | 64 | 184 | 7.0 | 9.6 | 0.00 | 0.00 | 0.00 | 76 | 1004.8 |
| 20260902195019 | 63 | 178 | 7.8 | 7.8 | 0.00 | 0.00 | 0.00 | 75 | 1004.8 |
| 20260902194518 | 63 | 153 | 7.0 | 8.7 | 0.00 | 0.00 | 0.00 | 75 | 1004.8 |
| 20260902194014 | 63 | 189 | 13.0 | 15.6 | 0.00 | 0.00 | 0.00 | 76 | 1005.0 |
| 20260902193510 | 64 | 202 | 17.4 | 21.7 | 0.00 | 0.00 | 0.00 | 74 | 1004.7 |
| 20260902193009 | 65 | 255 | 8.7 | 12.2 | 0.00 | 0.00 | 0.00 | 72 | 1004.7 |
| 20260902192508 | 68 | 262 | 7.8 | 13.0 | 0.00 | 0.00 | 0.00 | 65 | 1004.8 |
| 20260902192007 | 68 | 204 | 13.0 | 17.4 | 0.00 | 0.00 | 0.00 | 59 | 1004.5 |
| 20260902191503 | 69 | 199 | 7.8 | 8.7 | 0.00 | 0.00 | 0.00 | 59 | 1004.6 |
| 20260902190957 | 69 | 236 | 9.6 | 11.3 | 0.00 | 0.00 | 0.00 | 59 | 1004.5 |
| 20260902190452 | 68 | 258 | 7.8 | 9.6 | 0.00 | 0.00 | 0.00 | 61 | 1004.5 |
| 20260902185948 | 69 | 207 | 8.7 | 9.6 | 0.00 | 0.00 | 0.00 | 60 | 1004.8 |
| 20260902185444 | 68 | 119 | 4.3 | 5.2 | 0.00 | 0.00 | 0.00 | 62 | 1004.6 |
| 20260902184939 | 68 | 168 | 7.0 | 8.7 | 0.00 | 0.00 | 0.00 | 63 | 1004.6 |
| 20260902184434 | 68 | 213 | 2.6 | 4.3 | 0.00 | 0.00 | 0.00 | 62 | 1004.6 |
| 20260902183930 | 68 | 168 | 7.0 | 9.6 | 0.00 | 0.00 | 0.00 | 62 | 1005.1 |
| 20260902183426 | 67 | 197 | 6.1 | 7.0 | 0.00 | 0.00 | 0.00 | 64 | 1004.6 |
| 20260902182921 | 66 | 204 | 7.0 | 8.7 | 0.00 | 0.00 | 0.00 | 64 | 1004.9 |
| 20260902182417 | 66 | 157 | 5.2 | 6.1 | 0.00 | 0.00 | 0.00 | 66 | 1005.1 |
| 20260902181913 | 66 | 163 | 4.3 | 5.2 | 0.00 | 0.00 | 0.00 | 67 | 1005.0 |
| 20260902181409 | 66 | 161 | 4.3 | 5.2 | 0.00 | 0.00 | 0.00 | 67 | 1005.0 |
| 20260902180903 | 66 | 155 | 0.0 | 0.0 | 0.00 | 0.00 | 0.00 | 68 | 1005.0 |
| 20260902180358 | 66 | 210 | 3.5 | 5.2 | 0.00 | 0.00 | 0.00 | 66 | 1005.3 |
| 20260902175854 | 66 | 193 | 1.7 | 1.7 | 0.00 | 0.00 | 0.00 | 65 | 1005.2 |
| 20260902175349 | 67 | 234 | 1.7 | 2.6 | 0.00 | 0.00 | 0.00 | 65 | 1005.4 |
| 20260902174844 | 67 | 188 | 2.6 | 5.2 | 0.00 | 0.00 | 0.00 | 64 | 1005.4 |
| 20260902174341 | 66 | 174 | 7.0 | 7.8 | 0.00 | 0.00 | 0.00 | 64 | 1005.4 |
| 20260902173831 | 66 | 207 | 4.3 | 5.2 | 0.00 | 0.00 | 0.00 | 65 | 1005.5 |
| 20260902173331 | 66 | 186 | 4.3 | 6.1 | 0.00 | 0.00 | 0.00 | 66 | 1005.2 |
| 20260902172831 | 66 | 165 | 4.3 | 5.2 | 0.00 | 0.00 | 0.00 | 66 | 1005.4 |
| 20260902172325 | 66 | 190 | 3.5 | 4.3 | 0.00 | 0.00 | 0.00 | 68 | 1005.5 |
| 20260902171820 | 65 | 144 | 4.3 | 5.2 | 0.00 | 0.00 | 0.00 | 68 | 1005.6 |
| 20260902171315 | 65 | 225 | 3.5 | 4.3 | 0.00 | 0.00 | 0.00 | 69 | 1005.6 |
| 20260902170806 | 65 | 174 | 4.3 | 5.2 | 0.00 | 0.00 | 0.00 | 69 | 1005.4 |
| 20260902170300 | 65 | 166 | 3.5 | 4.3 | 0.00 | 0.00 | 0.00 | 69 | 1005.7 |
| 20260902165756 | 65 | 147 | 4.3 | 5.2 | 0.00 | 0.00 | 0.00 | 69 | 1005.8 |
| 20260902165250 | 65 | 221 | 3.5 | 4.3 | 0.00 | 0.00 | 0.00 | 70 | 1005.9 |
| 20260902164745 | 65 | 148 | 4.3 | 5.2 | 0.00 | 0.00 | 0.00 | 71 | 1006.0 |
| 20260902164244 | 64 | 193 | 3.5 | 5.2 | 0.00 | 0.00 | 0.00 | 72 | 1005.9 |
| 20260902163739 | 64 | 208 | 3.5 | 5.2 | 0.00 | 0.00 | 0.00 | 73 | 1006.0 |
| 20260902163233 | 64 | 225 | 3.5 | 4.3 | 0.00 | 0.00 | 0.00 | 74 | 1006.1 |
| 20260902162732 | 64 | 156 | 4.3 | 6.1 | 0.00 | 0.00 | 0.00 | 73 | 1006.0 |
| 20260902162226 | 64 | 205 | 0.0 | 0.0 | 0.00 | 0.00 | 0.00 | 74 | 1006.1 |
| 20260902161722 | 64 | 192 | 4.3 | 7.0 | 0.00 | 0.00 | 0.00 | 75 | 1006.2 |
| 20260902161217 | 64 | 190 | 7.0 | 7.8 | 0.00 | 0.00 | 0.00 | 75 | 1006.2 |
| 20260902160715 | 64 | 176 | 7.0 | 7.8 | 0.00 | 0.00 | 0.00 | 74 | 1006.2 |
| 20260902160208 | 64 | 115 | 6.1 | 7.8 | 0.00 | 0.00 | 0.00 | 75 | 1006.2 |
| 20260902155706 | 64 | 139 | 3.5 | 5.2 | 0.00 | 0.00 | 0.00 | 75 | 1006.3 |
| 20260902155205 | 65 | 171 | 4.3 | 6.1 | 0.00 | 0.00 | 0.00 | 74 | 1006.5 |
| 20260902154701 | 66 | 212 | 4.3 | 5.2 | 0.00 | 0.00 | 0.00 | 73 | 1006.2 |
| 20260902154200 | 64 | 194 | 0.9 | 1.7 | 0.00 | 0.00 | 0.00 | 73 | 1006.3 |
| 20260902153655 | 64 | 149 | 3.5 | 6.1 | 0.00 | 0.00 | 0.00 | 76 | 1006.8 |
| 20260902153150 | 63 | 135 | 4.3 | 6.1 | 0.00 | 0.00 | 0.00 | 77 | 1006.7 |
| 20260902152646 | 63 | 168 | 7.0 | 9.6 | 0.00 | 0.00 | 0.00 | 76 | 1006.7 |
| 20260902152141 | 63 | 206 | 4.3 | 6.1 | 0.00 | 0.00 | 0.00 | 77 | 1006.7 |
| 20260902151636 | 63 | 187 | 2.6 | 2.6 | 0.00 | 0.00 | 0.00 | 78 | 1006.9 |
| 20260902151137 | 62 | 145 | 3.5 | 4.3 | 0.00 | 0.00 | 0.00 | 79 | 1006.9 |
| 20260902150632 | 62 | 138 | 3.5 | 4.3 | 0.00 | 0.00 | 0.00 | 80 | 1006.8 |
| 20260902150127 | 62 | 163 | 3.5 | 4.3 | 0.00 | 0.00 | 0.00 | 82 | 1007.2 |
| 20260902145622 | 61 | 209 | 4.3 | 6.1 | 0.00 | 0.00 | 0.00 | 83 | 1007.0 |
| 20260902145121 | 62 | 167 | 0.9 | 1.7 | 0.00 | 0.00 | 0.00 | 83 | 1007.0 |
| 20260902144618 | 61 | 122 | 6.1 | 7.8 | 0.00 | 0.00 | 0.00 | 83 | 1007.3 |
| 20260902144118 | 62 | 156 | 2.6 | 4.3 | 0.00 | 0.00 | 0.00 | 82 | 1007.3 |
| 20260902143613 | 61 | 133 | 4.3 | 5.2 | 0.00 | 0.00 | 0.00 | 82 | 1007.2 |
| 20260902143108 | 61 | 210 | 2.6 | 2.6 | 0.00 | 0.00 | 0.00 | 83 | 1007.4 |
| 20260902142605 | 61 | 174 | 6.1 | 6.1 | 0.00 | 0.00 | 0.00 | 83 | 1007.1 |
| 20260902142100 | 60 | 182 | 4.3 | 5.2 | 0.00 | 0.00 | 0.00 | 83 | 1007.3 |
| 20260902141600 | 60 | 193 | 2.6 | 2.6 | 0.00 | 0.00 | 0.00 | 83 | 1007.3 |
| 20260902141055 | 60 | 210 | 1.7 | 2.6 | 0.00 | 0.00 | 0.00 | 84 | 1007.3 |
| 20260902140549 | 60 | 203 | 2.6 | 2.6 | 0.00 | 0.00 | 0.00 | 84 | 1007.4 |
| 20260902140046 | 60 | 197 | 3.5 | 5.2 | 0.00 | 0.00 | 0.00 | 84 | 1007.2 |
| 20260902135544 | 60 | 218 | 0.9 | 1.7 | 0.00 | 0.00 | 0.00 | 84 | 1007.3 |
| 20260902135039 | 60 | 204 | 1.7 | 1.7 | 0.00 | 0.00 | 0.00 | 84 | 1007.3 |
| 20260902134535 | 60 | 191 | 6.1 | 6.1 | 0.00 | 0.00 | 0.00 | 84 | 1007.4 |
| 20260902134035 | 60 | 198 | 6.1 | 7.0 | 0.00 | 0.00 | 0.00 | 84 | 1007.5 |
| 20260902133529 | 60 | 224 | 3.5 | 4.3 | 0.00 | 0.00 | 0.00 | 84 | 1007.4 |
| 20260902133024 | 60 | 177 | 6.1 | 7.0 | 0.00 | 0.00 | 0.00 | 84 | 1007.5 |
| 20260902132519 | 60 | 167 | 4.3 | 5.2 | 0.00 | 0.00 | 0.00 | 84 | 1007.4 |
| 20260902132015 | 60 | 197 | 2.6 | 2.6 | 0.00 | 0.00 | 0.00 | 84 | 1007.3 |
| 20260902131511 | 61 | 201 | 6.1 | 6.1 | 0.00 | 0.00 | 0.00 | 84 | 1007.4 |
| 20260902131010 | 61 | 196 | 4.3 | 5.2 | 0.00 | 0.00 | 0.00 | 83 | 1007.4 |
| 20260902130507 | 61 | 176 | 2.6 | 2.6 | 0.00 | 0.00 | 0.00 | 83 | 1007.5 |
| 20260902130002 | 61 | 210 | 5.2 | 7.0 | 0.00 | 0.00 | 0.00 | 83 | 1007.6 |
| 20260902125457 | 61 | 173 | 3.5 | 4.3 | 0.00 | 0.00 | 0.00 | 83 | 1007.6 |
| 20260902124953 | 61 | 205 | 4.3 | 5.2 | 0.00 | 0.00 | 0.00 | 83 | 1007.5 |
| 20260902124449 | 61 | 192 | 6.1 | 7.0 | 0.00 | 0.00 | 0.00 | 83 | 1007.8 |
| 20260902123944 | 61 | 201 | 2.6 | 2.6 | 0.00 | 0.00 | 0.00 | 83 | 1007.8 |
| 20260902123440 | 61 | 177 | 4.3 | 5.2 | 0.00 | 0.00 | 0.00 | 84 | 1007.6 |
| 20260902122938 | 60 | 200 | 5.2 | 7.0 | 0.00 | 0.00 | 0.00 | 84 | 1007.8 |
| 20260902122434 | 60 | 171 | 1.7 | 1.7 | 0.00 | 0.00 | 0.00 | 85 | 1007.8 |
| 20260902121930 | 60 | 193 | 5.2 | 6.1 | 0.00 | 0.00 | 0.00 | 85 | 1007.7 |
| 20260902121425 | 60 | 219 | 3.5 | 4.3 | 0.00 | 0.00 | 0.00 | 85 | 1007.9 |
| 20260902120925 | 60 | 209 | 4.3 | 5.2 | 0.00 | 0.00 | 0.00 | 85 | 1007.8 |
| 20260902120421 | 61 | 258 | 2.6 | 2.6 | 0.00 | 0.00 | 0.00 | 85 | 1007.8 |
| 20260902115920 | 61 | 228 | 1.7 | 2.6 | 0.00 | 0.00 | 0.00 | 85 | 1008.0 |
| 20260902115417 | 61 | 197 | 6.1 | 7.0 | 0.00 | 0.00 | 0.00 | 85 | 1007.9 |
| 20260902114913 | 60 | 210 | 3.5 | 5.2 | 0.00 | 0.00 | 0.00 | 85 | 1008.0 |
| 20260902114409 | 60 | 179 | 7.0 | 7.8 | 0.00 | 0.00 | 0.00 | 85 | 1007.8 |
| 20260902113903 | 61 | 208 | 7.8 | 8.7 | 0.00 | 0.00 | 0.00 | 85 | 1008.1 |
| 20260902113359 | 61 | 177 | 3.5 | 4.3 | 0.00 | 0.00 | 0.00 | 85 | 1008.0 |
| 20260902112858 | 61 | 200 | 3.5 | 4.3 | 0.00 | 0.00 | 0.00 | 85 | 1008.1 |
| 20260902112355 | 61 | 187 | 7.0 | 7.8 | 0.00 | 0.00 | 0.00 | 85 | 1008.1 |
| 20260902111850 | 61 | 169 | 6.1 | 7.8 | 0.00 | 0.00 | 0.00 | 85 | 1008.3 |
| 20260902111347 | 61 | 236 | 0.9 | 0.9 | 0.00 | 0.00 | 0.00 | 85 | 1008.3 |
| 20260902110842 | 61 | 188 | 6.1 | 9.6 | 0.00 | 0.00 | 0.00 | 86 | 1008.3 |
| 20260902110338 | 60 | 210 | 6.1 | 6.1 | 0.00 | 0.00 | 0.00 | 86 | 1008.1 |
| 20260902105837 | 60 | 238 | 3.5 | 5.2 | 0.00 | 0.00 | 0.00 | 86 | 1008.3 |
| 20260902105332 | 60 | 185 | 4.3 | 5.2 | 0.00 | 0.00 | 0.00 | 87 | 1008.2 |
| 20260902104827 | 60 | 234 | 3.5 | 4.3 | 0.00 | 0.00 | 0.00 | 87 | 1008.4 |
| 20260902104324 | 60 | 198 | 0.9 | 1.7 | 0.00 | 0.00 | 0.00 | 87 | 1008.3 |
| 20260902103823 | 60 | 222 | 4.3 | 5.2 | 0.00 | 0.00 | 0.00 | 87 | 1008.4 |
| 20260902103318 | 60 | 189 | 3.5 | 4.3 | 0.00 | 0.00 | 0.00 | 88 | 1008.7 |
| 20260902102813 | 60 | 206 | 5.2 | 8.7 | 0.00 | 0.00 | 0.00 | 88 | 1008.5 |
| 20260902102308 | 60 | 184 | 4.3 | 5.2 | 0.00 | 0.00 | 0.00 | 88 | 1008.5 |
| 20260902101801 | 60 | 185 | 5.2 | 6.1 | 0.00 | 0.00 | 0.00 | 88 | 1008.6 |
| 20260902101301 | 60 | 174 | 6.1 | 7.0 | 0.00 | 0.00 | 0.00 | 88 | 1008.5 |
| 20260902100755 | 60 | 216 | 5.2 | 7.0 | 0.00 | 0.00 | 0.00 | 88 | 1008.8 |
| 20260902100255 | 60 | 196 | 7.0 | 7.8 | 0.00 | 0.00 | 0.00 | 88 | 1008.5 |
| 20260902095749 | 60 | 182 | 3.5 | 4.3 | 0.00 | 0.00 | 0.00 | 88 | 1008.6 |
| 20260902095244 | 60 | 172 | 8.7 | 9.6 | 0.00 | 0.00 | 0.00 | 88 | 1008.6 |
| 20260902094738 | 60 | 201 | 7.8 | 11.3 | 0.00 | 0.00 | 0.00 | 88 | 1008.7 |
| 20260902094235 | 60 | 198 | 7.8 | 9.6 | 0.00 | 0.00 | 0.00 | 88 | 1008.5 |
| 20260902093734 | 60 | 201 | 3.5 | 5.2 | 0.00 | 0.00 | 0.00 | 88 | 1008.6 |
| 20260902093229 | 60 | 222 | 3.5 | 5.2 | 0.00 | 0.00 | 0.00 | 87 | 1008.5 |
| 20260902092729 | 60 | 188 | 3.5 | 4.3 | 0.00 | 0.00 | 0.00 | 88 | 1008.8 |
| 20260902092224 | 60 | 155 | 4.3 | 5.2 | 0.00 | 0.00 | 0.00 | 87 | 1008.7 |
| 20260902091723 | 61 | 198 | 5.2 | 6.1 | 0.00 | 0.00 | 0.00 | 87 | 1008.8 |
| 20260902091220 | 61 | 171 | 2.6 | 2.6 | 0.00 | 0.00 | 0.00 | 87 | 1008.8 |
| 20260902090716 | 61 | 180 | 7.0 | 7.8 | 0.00 | 0.00 | 0.00 | 87 | 1008.9 |
| 20260902090215 | 61 | 191 | 5.2 | 7.0 | 0.00 | 0.00 | 0.00 | 87 | 1009.1 |
| 20260902085709 | 61 | 193 | 3.5 | 5.2 | 0.00 | 0.00 | 0.00 | 87 | 1008.8 |
| 20260902085204 | 61 | 191 | 1.7 | 4.3 | 0.00 | 0.00 | 0.00 | 86 | 1008.9 |
| 20260902084655 | 61 | 186 | 4.3 | 6.1 | 0.00 | 0.00 | 0.00 | 86 | 1009.4 |
| 20260902084151 | 62 | 191 | 6.1 | 8.7 | 0.00 | 0.00 | 0.00 | 86 | 1009.4 |
| 20260902083646 | 62 | 208 | 1.7 | 1.7 | 0.00 | 0.00 | 0.00 | 86 | 1009.2 |
| 20260902083145 | 62 | 185 | 5.2 | 6.1 | 0.00 | 0.00 | 0.00 | 86 | 1009.4 |
| 20260902082641 | 62 | 199 | 6.1 | 7.0 | 0.00 | 0.00 | 0.00 | 86 | 1009.2 |
| 20260902082137 | 62 | 199 | 7.0 | 7.8 | 0.00 | 0.00 | 0.00 | 86 | 1009.3 |
| 20260902081633 | 62 | 204 | 7.0 | 7.8 | 0.00 | 0.00 | 0.00 | 86 | 1009.1 |
| 20260902081128 | 62 | 208 | 4.3 | 5.2 | 0.00 | 0.00 | 0.00 | 87 | 1009.4 |
| 20260902080623 | 62 | 202 | 2.6 | 4.3 | 0.00 | 0.00 | 0.00 | 86 | 1009.5 |
| 20260902080120 | 62 | 178 | 5.2 | 6.1 | 0.00 | 0.00 | 0.00 | 86 | 1009.5 |
| 20260902075619 | 62 | 194 | 4.3 | 6.1 | 0.00 | 0.00 | 0.00 | 86 | 1009.4 |
| 20260902075116 | 62 | 194 | 3.5 | 4.3 | 0.00 | 0.00 | 0.00 | 85 | 1009.4 |
| 20260902074611 | 62 | 207 | 4.3 | 5.2 | 0.00 | 0.00 | 0.00 | 83 | 1009.5 |
| 20260902074106 | 62 | 195 | 8.7 | 8.7 | 0.00 | 0.00 | 0.00 | 82 | 1009.5 |
| 20260902073601 | 62 | 175 | 6.1 | 7.8 | 0.00 | 0.00 | 0.00 | 81 | 1009.5 |
| 20260902073058 | 62 | 223 | 2.6 | 2.6 | 0.00 | 0.00 | 0.00 | 81 | 1009.6 |
| 20260902072553 | 62 | 160 | 6.1 | 7.8 | 0.00 | 0.00 | 0.00 | 80 | 1009.4 |
| 20260902072050 | 62 | 186 | 7.8 | 8.7 | 0.00 | 0.00 | 0.00 | 79 | 1009.5 |
| 20260902071549 | 62 | 192 | 8.7 | 9.6 | 0.00 | 0.00 | 0.00 | 79 | 1009.6 |
| 20260902071045 | 62 | 222 | 6.1 | 7.8 | 0.00 | 0.00 | 0.00 | 79 | 1009.7 |
| 20260902070540 | 62 | 193 | 5.2 | 7.8 | 0.00 | 0.00 | 0.00 | 79 | 1009.5 |
| 20260902070035 | 62 | 210 | 3.5 | 4.3 | 0.00 | 0.00 | 0.00 | 79 | 1009.8 |
| 20260902065529 | 62 | 195 | 5.2 | 7.0 | 0.00 | 0.00 | 0.00 | 79 | 1009.5 |
| 20260902065024 | 62 | 177 | 7.0 | 9.6 | 0.00 | 0.00 | 0.00 | 79 | 1009.5 |
| 20260902064521 | 61 | 202 | 4.3 | 6.1 | 0.00 | 0.00 | 0.00 | 80 | 1009.7 |
| 20260902064016 | 61 | 193 | 7.8 | 7.8 | 0.00 | 0.00 | 0.00 | 81 | 1009.6 |
| 20260902063515 | 61 | 155 | 3.5 | 4.3 | 0.00 | 0.00 | 0.00 | 81 | 1009.6 |
| 20260902063011 | 61 | 207 | 5.2 | 7.0 | 0.00 | 0.00 | 0.00 | 81 | 1009.8 |
| 20260902062509 | 61 | 239 | 4.3 | 5.2 | 0.00 | 0.00 | 0.00 | 81 | 1009.7 |
| 20260902062005 | 61 | 184 | 3.5 | 7.0 | 0.00 | 0.00 | 0.00 | 81 | 1009.7 |
| 20260902061459 | 61 | 182 | 7.0 | 9.6 | 0.00 | 0.00 | 0.00 | 81 | 1009.6 |
| 20260902060955 | 61 | 256 | 2.6 | 4.3 | 0.00 | 0.00 | 0.00 | 81 | 1009.6 |
| 20260902060451 | 61 | 206 | 4.3 | 7.8 | 0.00 | 0.00 | 0.00 | 82 | 1009.7 |
| 20260902055947 | 62 | 185 | 2.6 | 5.2 | 0.00 | 0.00 | 0.00 | 82 | 1009.5 |
| 20260902055443 | 62 | 185 | 7.8 | 8.7 | 0.00 | 0.00 | 0.00 | 82 | 1009.7 |
| 20260902054938 | 62 | 187 | 6.1 | 7.8 | 0.00 | 0.00 | 0.00 | 83 | 1010.0 |
| 20260902054433 | 62 | 200 | 3.5 | 5.2 | 0.00 | 0.00 | 0.00 | 83 | 1009.9 |
| 20260902053928 | 62 | 201 | 7.8 | 11.3 | 0.00 | 0.00 | 0.00 | 83 | 1009.6 |
| 20260902053424 | 62 | 219 | 6.1 | 8.7 | 0.00 | 0.00 | 0.00 | 83 | 1010.0 |
| 20260902052923 | 62 | 171 | 10.4 | 12.2 | 0.00 | 0.00 | 0.00 | 83 | 1009.8 |
| 20260902052418 | 62 | 200 | 5.2 | 7.0 | 0.00 | 0.00 | 0.00 | 83 | 1009.7 |
| 20260902051914 | 62 | 194 | 6.1 | 7.0 | 0.00 | 0.00 | 0.00 | 84 | 1009.9 |
| 20260902051414 | 62 | 180 | 6.1 | 7.8 | 0.00 | 0.00 | 0.00 | 84 | 1009.8 |
| 20260902050913 | 62 | 199 | 4.3 | 5.2 | 0.00 | 0.00 | 0.00 | 84 | 1009.7 |
| 20260902050413 | 62 | 211 | 5.2 | 7.0 | 0.00 | 0.00 | 0.00 | 84 | 1009.8 |
| 20260902045908 | 62 | 200 | 7.0 | 8.7 | 0.00 | 0.00 | 0.00 | 84 | 1009.8 |
| 20260902045403 | 62 | 182 | 6.1 | 7.8 | 0.00 | 0.00 | 0.00 | 84 | 1009.8 |
| 20260902044859 | 62 | 233 | 6.1 | 8.7 | 0.00 | 0.00 | 0.00 | 84 | 1009.9 |
| 20260902044354 | 62 | 181 | 4.3 | 6.1 | 0.00 | 0.00 | 0.00 | 84 | 1009.9 |
| 20260902043849 | 62 | 193 | 7.8 | 8.7 | 0.00 | 0.00 | 0.00 | 84 | 1009.8 |
| 20260902043344 | 62 | 230 | 6.1 | 7.8 | 0.00 | 0.00 | 0.00 | 84 | 1009.8 |
| 20260902042839 | 62 | 245 | 3.5 | 5.2 | 0.00 | 0.00 | 0.00 | 84 | 1009.9 |
| 20260902042338 | 62 | 194 | 7.8 | 9.6 | 0.00 | 0.00 | 0.00 | 84 | 1010.0 |
| 20260902041834 | 62 | 207 | 4.3 | 7.8 | 0.00 | 0.00 | 0.00 | 83 | 1009.8 |
| 20260902041334 | 63 | 193 | 5.2 | 7.0 | 0.00 | 0.00 | 0.00 | 83 | 1009.7 |
| 20260902040832 | 63 | 189 | 9.6 | 13.0 | 0.00 | 0.00 | 0.00 | 83 | 1009.6 |
| 20260902040328 | 63 | 202 | 6.1 | 7.8 | 0.00 | 0.00 | 0.00 | 82 | 1009.9 |
| 20260902035827 | 63 | 193 | 6.1 | 7.0 | 0.00 | 0.00 | 0.00 | 81 | 1009.8 |
| 20260902035323 | 63 | 206 | 7.8 | 11.3 | 0.00 | 0.00 | 0.00 | 81 | 1009.7 |
| 20260902034821 | 63 | 204 | 4.3 | 5.2 | 0.00 | 0.00 | 0.00 | 80 | 1009.6 |
| 20260902034317 | 63 | 193 | 7.8 | 9.6 | 0.00 | 0.00 | 0.00 | 80 | 1009.7 |
| 20260902033814 | 63 | 190 | 8.7 | 11.3 | 0.00 | 0.00 | 0.00 | 80 | 1009.7 |
| 20260902033310 | 63 | 201 | 8.7 | 12.2 | 0.00 | 0.00 | 0.00 | 80 | 1009.6 |
| 20260902032809 | 63 | 196 | 5.2 | 7.0 | 0.00 | 0.00 | 0.00 | 80 | 1009.7 |
| 20260902032306 | 64 | 186 | 7.8 | 7.8 | 0.00 | 0.00 | 0.00 | 80 | 1009.5 |
| 20260902031804 | 64 | 208 | 8.7 | 12.2 | 0.00 | 0.00 | 0.00 | 79 | 1009.3 |
| 20260902031300 | 64 | 204 | 9.6 | 12.2 | 0.00 | 0.00 | 0.00 | 80 | 1009.3 |
| 20260902030755 | 64 | 203 | 2.6 | 2.6 | 0.00 | 0.00 | 0.00 | 80 | 1009.3 |
| 20260902030250 | 64 | 187 | 4.3 | 6.1 | 0.00 | 0.00 | 0.00 | 80 | 1009.4 |
| 20260902025748 | 64 | 196 | 7.8 | 12.2 | 0.00 | 0.00 | 0.00 | 80 | 1009.2 |
| 20260902025244 | 64 | 195 | 6.1 | 8.7 | 0.00 | 0.00 | 0.00 | 79 | 1009.3 |
| 20260902024738 | 64 | 179 | 3.5 | 5.2 | 0.00 | 0.00 | 0.00 | 79 | 1009.4 |
| 20260902024234 | 64 | 204 | 7.0 | 7.8 | 0.00 | 0.00 | 0.00 | 79 | 1009.1 |
| 20260902023730 | 65 | 196 | 7.0 | 11.3 | 0.00 | 0.00 | 0.00 | 79 | 1009.1 |
| 20260902023225 | 65 | 226 | 6.1 | 9.6 | 0.00 | 0.00 | 0.00 | 79 | 1009.3 |
| 20260902022724 | 65 | 212 | 3.5 | 6.1 | 0.00 | 0.00 | 0.00 | 79 | 1009.1 |
| 20260902022220 | 65 | 186 | 3.5 | 7.0 | 0.00 | 0.00 | 0.00 | 78 | 1009.3 |
| 20260902021715 | 65 | 199 | 7.8 | 7.8 | 0.00 | 0.00 | 0.00 | 78 | 1009.2 |
| 20260902021209 | 65 | 177 | 12.2 | 14.8 | 0.00 | 0.00 | 0.00 | 77 | 1009.1 |
| 20260902020706 | 65 | 181 | 8.7 | 11.3 | 0.00 | 0.00 | 0.00 | 78 | 1009.5 |
| 20260902020202 | 65 | 174 | 2.6 | 4.3 | 0.00 | 0.00 | 0.00 | 78 | 1009.2 |
| 20260902015657 | 65 | 193 | 6.1 | 7.8 | 0.00 | 0.00 | 0.00 | 77 | 1009.2 |
| 20260902015153 | 65 | 187 | 10.4 | 12.2 | 0.00 | 0.00 | 0.00 | 77 | 1009.3 |
| 20260902014649 | 65 | 186 | 4.3 | 6.1 | 0.00 | 0.00 | 0.00 | 78 | 1009.1 |
| 20260902014144 | 65 | 154 | 9.6 | 13.0 | 0.00 | 0.00 | 0.00 | 78 | 1009.2 |
| 20260902013643 | 65 | 232 | 8.7 | 11.3 | 0.00 | 0.00 | 0.00 | 78 | 1009.2 |
| 20260902013139 | 66 | 207 | 7.0 | 8.7 | 0.00 | 0.00 | 0.00 | 77 | 1009.3 |
| 20260902012635 | 66 | 199 | 6.1 | 9.6 | 0.00 | 0.00 | 0.00 | 77 | 1009.2 |
| 20260902012130 | 66 | 183 | 9.6 | 12.2 | 0.00 | 0.00 | 0.00 | 77 | 1009.2 |
| 20260902011626 | 66 | 170 | 7.8 | 8.7 | 0.00 | 0.00 | 0.00 | 77 | 1009.2 |
| 20260902011126 | 66 | 210 | 7.8 | 12.2 | 0.00 | 0.00 | 0.00 | 77 | 1009.5 |
| 20260902010625 | 66 | 145 | 12.2 | 14.8 | 0.00 | 0.00 | 0.00 | 76 | 1009.4 |
| 20260902010121 | 66 | 203 | 6.1 | 7.8 | 0.00 | 0.00 | 0.00 | 75 | 1009.3 |
| 20260902005619 | 66 | 221 | 6.1 | 8.7 | 0.00 | 0.00 | 0.00 | 75 | 1009.2 |
| 20260902005115 | 66 | 208 | 7.0 | 9.6 | 0.00 | 0.00 | 0.00 | 76 | 1009.1 |
| 20260902004614 | 67 | 175 | 7.0 | 9.6 | 0.00 | 0.00 | 0.00 | 75 | 1009.1 |
| 20260902004109 | 67 | 221 | 6.1 | 7.0 | 0.00 | 0.00 | 0.00 | 75 | 1009.4 |
| 20260902003604 | 68 | 167 | 9.6 | 11.3 | 0.00 | 0.00 | 0.00 | 73 | 1009.3 |
| 20260902003100 | 68 | 171 | 5.2 | 6.1 | 0.00 | 0.00 | 0.00 | 72 | 1009.3 |
| 20260902002555 | 68 | 188 | 6.1 | 7.8 | 0.00 | 0.00 | 0.00 | 73 | 1009.2 |
| 20260902002050 | 67 | 199 | 6.1 | 7.8 | 0.00 | 0.00 | 0.00 | 73 | 1009.4 |
| 20260902001545 | 67 | 195 | 7.8 | 9.6 | 0.00 | 0.00 | 0.00 | 74 | 1009.1 |
| 20260902001040 | 67 | 206 | 7.0 | 7.8 | 0.00 | 0.00 | 0.00 | 74 | 1009.3 |
| 20260902000534 | 67 | 190 | 9.6 | 12.2 | 0.00 | 0.00 | 0.00 | 74 | 1009.1 |
| 20260902000030 | 68 | 251 | 6.1 | 8.7 | 0.00 | 0.00 | 0.00 | 73 | 1009.2 |
| 20260901235524 | 68 | 220 | 7.8 | 8.7 | 0.00 | 0.00 | 0.00 | 72 | 1009.2 |
| 20260901235020 | 67 | 180 | 10.4 | 13.0 | 0.00 | 0.00 | 0.00 | 73 | 1009.4 |
| 20260901234518 | 67 | 189 | 6.1 | 8.7 | 0.00 | 0.00 | 0.00 | 73 | 1009.3 |
| 20260901234014 | 68 | 210 | 8.7 | 8.7 | 0.00 | 0.00 | 0.00 | 73 | 1009.2 |
| 20260901233509 | 68 | 235 | 1.7 | 2.6 | 0.00 | 0.00 | 0.00 | 72 | 1009.2 |
| 20260901233005 | 67 | 172 | 7.0 | 12.2 | 0.00 | 0.00 | 0.00 | 73 | 1009.3 |
| 20260901232500 | 67 | 201 | 4.3 | 5.2 | 0.00 | 0.00 | 0.00 | 73 | 1009.2 |
| 20260901231955 | 67 | 209 | 9.6 | 12.2 | 0.00 | 0.00 | 0.00 | 73 | 1009.2 |
| 20260901231451 | 68 | 163 | 6.1 | 8.7 | 0.00 | 0.00 | 0.00 | 73 | 1009.3 |
| 20260901230948 | 69 | 221 | 3.5 | 4.3 | 0.00 | 0.00 | 0.00 | 71 | 1009.3 |
| 20260901230447 | 69 | 241 | 4.3 | 7.8 | 0.00 | 0.00 | 0.00 | 70 | 1009.4 |
| 20260901225942 | 70 | 182 | 10.4 | 12.2 | 0.00 | 0.00 | 0.00 | 69 | 1009.2 |
| 20260901225442 | 69 | 229 | 9.6 | 12.2 | 0.00 | 0.00 | 0.00 | 70 | 1009.3 |
| 20260901224937 | 69 | 221 | 9.6 | 11.3 | 0.00 | 0.00 | 0.00 | 71 | 1009.3 |
| 20260901224433 | 67 | 204 | 6.1 | 7.8 | 0.00 | 0.00 | 0.00 | 72 | 1009.3 |
| 20260901223929 | 68 | 198 | 5.2 | 7.8 | 0.00 | 0.00 | 0.00 | 71 | 1009.3 |
| 20260901223424 | 70 | 193 | 13.9 | 17.4 | 0.00 | 0.00 | 0.00 | 68 | 1009.3 |
| 20260901222920 | 69 | 181 | 4.3 | 7.8 | 0.00 | 0.00 | 0.00 | 70 | 1009.0 |
| 20260901222416 | 69 | 208 | 2.6 | 5.2 | 0.00 | 0.00 | 0.00 | 70 | 1009.3 |
| 20260901221912 | 68 | 197 | 2.6 | 4.3 | 0.00 | 0.00 | 0.00 | 72 | 1009.3 |
| 20260901221408 | 67 | 218 | 5.2 | 7.0 | 0.00 | 0.00 | 0.00 | 74 | 1009.1 |
| 20260901220902 | 67 | 196 | 7.0 | 7.8 | 0.00 | 0.00 | 0.00 | 73 | 1009.4 |
| 20260901220401 | 67 | 186 | 6.1 | 7.8 | 0.00 | 0.00 | 0.00 | 72 | 1009.4 |
| 20260901215900 | 68 | 275 | 3.5 | 6.1 | 0.00 | 0.00 | 0.00 | 73 | 1009.4 |
| 20260901215359 | 68 | 212 | 4.3 | 7.8 | 0.00 | 0.00 | 0.00 | 72 | 1009.3 |
| 20260901214858 | 69 | 258 | 7.8 | 8.7 | 0.00 | 0.00 | 0.00 | 71 | 1009.6 |
| 20260901214357 | 69 | 210 | 4.3 | 6.1 | 0.00 | 0.00 | 0.00 | 69 | 1009.5 |
| 20260901213856 | 69 | 207 | 4.3 | 7.0 | 0.00 | 0.00 | 0.00 | 70 | 1009.5 |
| 20260901213352 | 69 | 200 | 5.2 | 6.1 | 0.00 | 0.00 | 0.00 | 70 | 1009.7 |
| 20260901212851 | 70 | 248 | 4.3 | 5.2 | 0.00 | 0.00 | 0.00 | 69 | 1009.5 |
| 20260901212347 | 69 | 222 | 4.3 | 5.2 | 0.00 | 0.00 | 0.00 | 69 | 1009.5 |
| 20260901211843 | 69 | 201 | 8.7 | 9.6 | 0.00 | 0.00 | 0.00 | 72 | 1009.6 |
| 20260901211338 | 68 | 217 | 6.1 | 7.8 | 0.00 | 0.00 | 0.00 | 73 | 1009.5 |
| 20260901210834 | 67 | 135 | 11.3 | 13.9 | 0.00 | 0.00 | 0.00 | 73 | 1009.5 |
| 20260901210329 | 68 | 216 | 6.1 | 7.8 | 0.00 | 0.00 | 0.00 | 72 | 1009.7 |
| 20260901205825 | 70 | 283 | 5.2 | 7.8 | 0.00 | 0.00 | 0.00 | 70 | 1009.7 |
| 20260901205320 | 69 | 222 | 9.6 | 12.2 | 0.00 | 0.00 | 0.00 | 71 | 1009.8 |
| 20260901204815 | 70 | 160 | 6.1 | 7.0 | 0.00 | 0.00 | 0.00 | 67 | 1009.5 |